Location: El Manguito
(10.2358°N, 67.3634°W)
Time: 23:22:28
(UTC+00:00)

Aurora 2 Rocket - Pass Details

Date: 16 December 2025
Orbit: 385 x 1539 km, 25.0° (Epoch: 23 January)

Event Time Altitude Azimuth Distance (km) Brightness Sun altitude
Exits shadow 08:08:45 34° 37° (NE) 1,748 4.8 -35.2°
Drops below altitude 10° 08:12:19 10° 54° (NE) 2,734 6.2 -34.4°
Sets 08:14:42 0° 59° (ENE) 3,514 6.9 -33.9°
